Location: Be?i?
(36.9044°N, 30.1006°E)
Time: 11:56:16
(UTC+00:00)

SPOT 5 - Pass Details

Date: 05 August 2024
Orbit: 619 x 808 km, 98.1° (Epoch: 09 September)

Event Time Altitude Azimuth Distance (km) Brightness Sun altitude
Exits shadow 18:28:06 23° 146° (SE) 1,644 4.2 -15.9°
Maximum altitude 18:31:20 60° 74° (ENE) 921 3.2 -16.4°
Drops below altitude 10° 18:36:35 10° 355° (N) 2,399 6.1 -17.3°
Sets 18:38:57 0° 352° (N) 3,328 7.0 -17.6°
